Overview Statistics Trail Chart Weather Telemetry Raw packets
 

This is the latest recevied weather packets stored in our database for station/object KD8DNS. If no packets are shown the sender has not sent any weather packets the latest 10 day(s).

<< 28 29 30 31 32 33 34 >>
Time Temp. Humidity Pressure Rain* Wind** Luminosity Snow
1788480298 30.56° C 66% 1018.4 hPa 0 mm - 0 W/m² -
1788479994 31.11° C 66% 1018.3 hPa 0 mm - 2 W/m² -
1788479690 31.11° C 65% 1018 hPa 0 mm - 3 W/m² -
1788479389 31.67° C 64% 1018.1 hPa 0 mm - 5 W/m² -
1788479085 31.67° C 63% 1018 hPa 0 mm - 9 W/m² -
1788478781 32.22° C 62% 1018 hPa 0 mm - 11 W/m² -
1788478477 32.22° C 61% 1018 hPa 0 mm - 14 W/m² -
1788478174 32.78° C 60% 1017.8 hPa 0 mm - 16 W/m² -
1788477866 32.78° C 59% 1018.1 hPa 0 mm - 21 W/m² -
1788477561 33.33° C 59% 1018.2 hPa 0 mm - 29 W/m² -
1788477256 33.33° C 58% 1018.1 hPa 0 mm - 29 W/m² -
1788476951 33.89° C 57% 1017.9 hPa 0 mm - 31 W/m² -
1788476646 33.89° C 57% 1017.9 hPa 0 mm - 32 W/m² -
1788476342 33.89° C 56% 1017.9 hPa 0 mm - 36 W/m² -
1788476037 33.89° C 55% 1018 hPa 0 mm - 47 W/m² -
1788475733 34.44° C 55% 1017.9 hPa 0 mm - 41 W/m² -
1788475424 34.44° C 54% 1017.8 hPa 0 mm - 46 W/m² -
1788475119 34.44° C 54% 1018 hPa 0 mm - 47 W/m² -
1788474818 35° C 53% 1017.9 hPa 0 mm - 59 W/m² -
1788474513 35° C 53% 1017.7 hPa 0 mm - 67 W/m² -
1788474213 34.44° C 53% 1017.7 hPa 0 mm - 65 W/m² -
1788473913 34.44° C 52% 1017.6 hPa 0 mm - 88 W/m² -
1788473612 34.44° C 52% 1017.7 hPa 0 mm - 64 W/m² -
1788473310 35° C 52% 1017.7 hPa 0 mm - 61 W/m² -
1788473005 35° C 51% 1017.4 hPa 0 mm - 65 W/m² -

* Rain latest hour (hover to see other rain measurements)
** Current wind speed in m/s (hover to see current wind gust speed)